STARLINK-11476, 62228

Orbit data source: Space-Track

STARLINK-11476, 62228 is a payload satellite owned by SpaceX/Seattle (US) in LEO that was launched on Thu, 05 Dec 2024 UTC via an FALCON 9 launch vehicle from the Air Force Western Test Range (AFWTR). Payload-class satellites include a variety of spacecraft equipped with specific instruments for various scientific and technological missions. These include communications satellites like Starlink; space stations such as the ISS; scientific satellites like the Hubble; Earth observation satellites from companies like Planet Labs, Umbra, and HawkEye 360; GPS; miniature CubeSats for education and research; and military/defense satellites.

Loading next visibility...
Identifier
62228, 2024-231L
Orbit
LEO
Country
Flag of USUS
Related business
Manufacturer
SpaceX/Seattle
Mission
Operational Commercial Communications
Bus & Motor
STARLINK V2MD, Unknown motor
Mass
960 kg wet, ~910 kg dry
Launch date (UTC)
2024-12-05 (9 months ago)
Launch vehicle
FALCON 9
Launch site
Air Force Western Test Range (AFWTR)
Object type
Payload
Rocket body
Debris
Shape & HBR
Box + 2 Pan, 14.5 m
Radar Cross Section
36.964 m², Large (>1 m²)

Expand to show TLE details & history
Last TLE update: 22 hours ago

TLE from 22 hours ago
0 STARLINK-11476
1 62228U 24231L   25257.50185260  .00167855  00000-0  13582-2 0  9993
2 62228  53.1587 249.4787 0003609  89.0555 271.0877 15.69780919 45750
Epoch: 2025-09-14T12:02Z
TLE epoch observation values (Epoch: 2025-09-14T12:02:40.064Z)
Latitude
0.00002°
Longitude
75.09183°
Altitude
360.393 km
Speed
7.694 km/s
True Right ascension
16h 37m 54s
True Declination
0° 00' 00"
Sunlit
Object was in daylight at epoch
Visualization orbit readout
Latitude
Unknown
Longitude
Unknown
Altitude
Unknown
Speed
Unknown
Apparent Right ascension
Unknown
Apparent Declination
Unknown
Sunlit
N/A
Visualization observer readout
Local Sidereal Time
02:18:40
Azimuth
Unknown
Elevation
Unknown
Doppler factor
Unknown
Orbital elements
Apogee altitude
362.216 km
Perigee altitude
357.353 km
Semi-major axis
6,737.922 km
Eccentricity
0.00036
Inclination
53.1587°
RAAN
249.4787°
Arg. of periapsis
89.0555°
True anomaly
271.04635°
Mean anomaly
271.0877°
Eccentric anomaly
271.06703°
Mean motion
3.92423 °/min
Orbital period
91.74 mins
BSTAR
0.0013582
Loading maneuver chart data...
Computing Atmospheric mass density...
Loading historical data...
Loading historical data...
Loading historical data...
Loading historical data...
Loading historical data...
Loading historical data...
Loading historical data...

Documentation

Showing up to 5 results
|